TimeMST,TemperatureF,Dew PointF,Humidity,Sea Level PressureIn,VisibilityMPH,Wind Direction,Wind SpeedMPH,Gust SpeedMPH,PrecipitationIn,Events,Conditions,WindDirDegrees,DateUTC
12:58 AM,10.8,5.5,79,30.53,10.0,ESE,10.4,-,N/A,,Clear,110,2013-01-02 07:58:00
1:37 AM,12.2,6.8,79,30.38,10.0,SSE,6.9,-,N/A,,Partly Cloudy,150,2013-01-02 08:37:00
1:58 AM,10.8,7.0,85,30.53,10.0,South,8.1,-,N/A,,Scattered Clouds,170,2013-01-02 08:58:00
2:03 AM,10.4,6.8,85,30.39,10.0,South,6.9,-,N/A,,Mostly Cloudy,170,2013-01-02 09:03:00
2:08 AM,10.4,6.8,85,30.39,10.0,SSE,8.1,-,N/A,,Scattered Clouds,160,2013-01-02 09:08:00
2:13 AM,10.4,8.6,92,30.39,9.0,SSE,8.1,-,N/A,,Scattered Clouds,150,2013-01-02 09:13:00
2:18 AM,10.4,6.8,85,30.38,9.0,SSE,8.1,-,N/A,,Mostly Cloudy,150,2013-01-02 09:18:00
2:28 AM,10.4,6.8,85,30.38,6.0,SE,8.1,-,N/A,,Mostly Cloudy,130,2013-01-02 09:28:00
2:32 AM,10.4,6.8,85,30.38,4.0,ESE,5.8,-,N/A,Snow,Light Snow,120,2013-01-02 09:32:00
2:37 AM,10.4,6.8,85,30.38,3.0,ESE,5.8,-,N/A,Snow,Light Snow,120,2013-01-02 09:37:00
2:47 AM,10.4,6.8,85,30.38,3.0,SE,8.1,-,N/A,Snow,Light Snow,130,2013-01-02 09:47:00
2:52 AM,10.4,6.8,85,30.38,5.0,ESE,4.6,-,N/A,Snow,Light Snow,120,2013-01-02 09:52:00
2:55 AM,10.4,6.8,85,30.38,5.0,SE,4.6,-,N/A,,Overcast,130,2013-01-02 09:55:00
2:58 AM,10.4,6.8,85,30.53,5.0,SE,5.8,-,0.00,,Overcast,130,2013-01-02 09:58:00
3:03 AM,10.4,6.8,85,30.38,6.0,SE,5.8,-,N/A,,Overcast,130,2013-01-02 10:03:00
3:13 AM,10.4,6.8,85,30.38,5.0,ESE,5.8,-,N/A,Snow,Light Snow,120,2013-01-02 10:13:00
3:18 AM,10.4,6.8,85,30.38,4.0,SE,5.8,-,N/A,Snow,Light Snow,130,2013-01-02 10:18:00
3:23 AM,10.4,6.8,85,30.38,5.0,SE,3.5,-,N/A,Snow,Light Snow,140,2013-01-02 10:23:00
3:43 AM,12.2,8.6,85,30.38,4.0,ESE,4.6,-,N/A,Snow,Light Snow,120,2013-01-02 10:43:00
3:58 AM,11.7,7.9,85,30.53,3.0,ESE,4.6,-,0.00,Snow,Light Snow,110,2013-01-02 10:58:00
4:07 AM,12.2,6.8,79,30.38,4.0,ESE,5.8,-,N/A,,Overcast,110,2013-01-02 11:07:00
4:12 AM,12.2,6.8,79,30.38,5.0,ESE,6.9,-,N/A,,Haze,110,2013-01-02 11:12:00
4:26 AM,12.2,6.8,79,30.38,6.0,ESE,6.9,-,N/A,Snow,Light Snow,120,2013-01-02 11:26:00
4:36 AM,12.2,6.8,79,30.37,7.0,ESE,5.8,-,N/A,Snow,Light Snow,120,2013-01-02 11:36:00
4:39 AM,12.2,6.8,79,30.37,6.0,ESE,5.8,-,N/A,,Haze,120,2013-01-02 11:39:00
4:43 AM,12.2,6.8,79,30.37,5.0,ESE,5.8,-,N/A,Snow,Light Snow,110,2013-01-02 11:43:00
4:46 AM,12.2,6.8,79,30.37,6.0,ESE,6.9,-,N/A,,Haze,110,2013-01-02 11:46:00
4:52 AM,12.2,6.8,79,30.37,7.0,ESE,8.1,-,N/A,Snow,Light Snow,110,2013-01-02 11:52:00
4:57 AM,10.4,6.8,85,30.37,7.0,ESE,8.1,-,N/A,Snow,Light Snow,110,2013-01-02 11:57:00
4:58 AM,11.5,7.0,82,30.54,7.0,ESE,8.1,-,0.00,Snow,Light Snow,110,2013-01-02 11:58:00
5:13 AM,10.4,5.0,79,30.37,10.0,ESE,10.4,-,N/A,Snow,Light Snow,110,2013-01-02 12:13:00
5:18 AM,10.4,5.0,79,30.37,10.0,ESE,10.4,-,N/A,Snow,Light Snow,110,2013-01-02 12:18:00
5:20 AM,10.4,5.0,79,30.37,10.0,ESE,10.4,-,N/A,,Overcast,110,2013-01-02 12:20:00
5:25 AM,10.4,5.0,79,30.38,10.0,ESE,10.4,-,N/A,,Mostly Cloudy,110,2013-01-02 12:25:00
5:35 AM,10.4,5.0,79,30.38,10.0,ESE,10.4,-,N/A,,Scattered Clouds,110,2013-01-02 12:35:00
5:58 AM,10.2,4.6,78,30.55,10.0,ESE,10.4,-,0.00,,Clear,120,2013-01-02 12:58:00
6:28 AM,10.4,5.0,79,30.39,10.0,ESE,10.4,-,N/A,,Mostly Cloudy,110,2013-01-02 13:28:00
6:43 AM,10.4,5.0,79,30.39,10.0,ESE,10.4,-,N/A,,Overcast,110,2013-01-02 13:43:00
6:58 AM,10.6,5.2,79,30.55,10.0,ESE,10.4,-,N/A,,Overcast,110,2013-01-02 13:58:00
7:03 AM,10.4,5.0,79,30.38,10.0,ESE,10.4,-,N/A,,Overcast,110,2013-01-02 14:03:00
7:10 AM,10.4,5.0,79,30.39,10.0,ESE,9.2,-,N/A,Snow,Light Snow,110,2013-01-02 14:10:00
7:38 AM,10.4,5.0,79,30.38,10.0,ESE,11.5,-,N/A,,Overcast,110,2013-01-02 14:38:00
7:58 AM,9.9,4.3,78,30.55,5.0,ESE,12.7,-,0.00,,Overcast,110,2013-01-02 14:58:00
8:38 AM,10.4,3.2,73,30.39,10.0,ESE,10.4,-,N/A,,Mostly Cloudy,120,2013-01-02 15:38:00
8:48 AM,10.4,3.2,73,30.40,10.0,East,10.4,-,N/A,,Scattered Clouds,100,2013-01-02 15:48:00
8:58 AM,10.4,3.4,73,30.58,10.0,ESE,10.4,-,N/A,,Scattered Clouds,110,2013-01-02 15:58:00
9:58 AM,12.2,4.8,72,30.58,10.0,ESE,8.1,-,N/A,,Scattered Clouds,110,2013-01-02 16:58:00
10:33 AM,12.2,5.0,73,30.42,4.0,ESE,9.2,-,N/A,,Haze,110,2013-01-02 17:33:00
10:58 AM,14.0,5.4,69,30.59,6.0,East,8.1,-,N/A,,Haze,100,2013-01-02 17:58:00
11:58 AM,17.2,9.1,71,30.56,6.0,NNW,3.5,-,N/A,,Haze,340,2013-01-02 18:58:00
12:58 PM,17.8,10.0,72,30.56,10.0,North,3.5,-,N/A,,Partly Cloudy,360,2013-01-02 19:58:00
1:58 PM,19.9,11.5,70,30.53,10.0,NNW,5.8,-,N/A,,Partly Cloudy,330,2013-01-02 20:58:00
2:58 PM,19.0,10.8,70,30.53,10.0,NW,5.8,-,N/A,,Scattered Clouds,320,2013-01-02 21:58:00
3:58 PM,18.1,10.2,71,30.53,10.0,NW,6.9,-,N/A,,Clear,320,2013-01-02 22:58:00
4:58 PM,15.6,9.3,76,30.55,10.0,NW,5.8,-,N/A,,Clear,320,2013-01-02 23:58:00
5:58 PM,13.8,8.4,79,30.56,10.0,NNW,6.9,-,N/A,,Clear,330,2013-01-03 00:58:00
6:58 PM,12.6,8.1,82,30.57,10.0,NNW,5.8,-,N/A,,Clear,340,2013-01-03 01:58:00
7:58 PM,10.9,7.3,85,30.60,10.0,Calm,Calm,-,N/A,,Clear,0,2013-01-03 02:58:00
8:24 PM,8.6,5.0,85,30.40,5.0,ESE,1.2,-,N/A,,Clear,110,2013-01-03 03:24:00
8:38 PM,8.6,5.0,85,30.40,6.0,East,2.3,-,N/A,,Clear,90,2013-01-03 03:38:00
8:58 PM,9.9,6.1,85,30.61,10.0,ESE,5.8,-,N/A,,Clear,110,2013-01-03 03:58:00
9:58 PM,9.9,4.8,80,30.59,10.0,ESE,6.9,-,N/A,,Clear,120,2013-01-03 04:58:00
10:58 PM,9.0,4.1,81,30.58,10.0,ESE,5.8,-,N/A,,Clear,110,2013-01-03 05:58:00
11:58 PM,8.2,3.6,81,30.58,10.0,ESE,8.1,-,N/A,,Clear,110,2013-01-03 06:58:00